Waarnemingen

Advertentie
Mijn weer
Görlitz, Duitsland (10499): temperatuur & dauwpunt: 20.09.2017 14:00:00 - 26.09.2017 14:00:00 (CEST)Görlitz, Duitsland (10499): temperatuur 5cm & temperatuur -5cm: 20.09.2017 14:00:00 - 26.09.2017 14:00:00 (CEST)Görlitz, Duitsland (10499): temperatuur -20cm & temperatuur -100cm: 20.09.2017 14:00:00 - 26.09.2017 14:00:00 (CEST)Görlitz, Duitsland (10499): windsnelheid & windstoten: 20.09.2017 14:00:00 - 26.09.2017 14:00:00 (CEST)Görlitz, Duitsland (10499): windrichting: 20.09.2017 14:00:00 - 26.09.2017 14:00:00 (CEST)Görlitz, Duitsland (10499): luchtdruk: 20.09.2017 14:00:00 - 26.09.2017 14:00:00 (CEST)Görlitz, Duitsland (10499): zicht: 20.09.2017 14:00:00 - 26.09.2017 14:00:00 (CEST)Görlitz, Duitsland (10499): Zonneschijnduur: 20.09.2017 14:00:00 - 26.09.2017 14:00:00 (CEST)Görlitz, Duitsland (10499): neerslag: 20.09.2017 14:00:00 - 26.09.2017 14:00:00 (CEST)
Datum & Tijd tt [°C] td [°C] tt 5cm [°C] tt -5cm [°C] tt -20cm [°C] tt -100cm [°C] ff [km/u] ff [kn] fx [km/u] fx [kn] dd ppp [hPa] vv [km] sd [min] rr [mm]
26.09.2017 14:00:00 14,5 12,3 13,9 14,8 13,7 14,6 13 7 21 11 ONO 1026,0 15 11 0,0
26.09.2017 13:00:00 15,7 12,7 18,7 14,1 13,6 14,6 10 6 18 10 ONO 1025,8 22 11 0,0
26.09.2017 12:00:00 14,0 12,2 15,0 13,7 13,5 14,6 11 6 20 11 ONO 1026,0 24 3 0,0
26.09.2017 11:00:00 14,1 11,1 14,5 13,3 13,4 14,6 10 5 19 10 O 1025,9 20 8 0,0
26.09.2017 10:00:00 14,2 10,8 15,5 12,8 13,4 14,6 5 3 16 9 OZO 1025,6 19 39 0,0
26.09.2017 09:00:00 12,5 10,8 13,3 12,4 13,5 14,6 10 6 16 8 O 1025,4 17 46 0,0
26.09.2017 08:00:00 10,0 9,7 9,9 12,4 13,6 14,6 4 2 10 5 Z 1025,2 14 0 0,0
26.09.2017 07:00:00 10,7 10,4 10,0 12,5 13,7 14,6 8 4 11 6 O 1024,9 14 0 0,0
26.09.2017 06:00:00 10,4 10,2 9,9 12,6 13,8 14,6 5 3 9 5 O 1024,7 12 0 0,0
26.09.2017 05:00:00 10,2 10,2 9,9 12,7 13,9 14,6 4 2 7 4 OZO 1024,6 10 0 0,0
26.09.2017 04:00:00 10,3 10,1 9,1 12,9 14,0 14,6 4 2 7 4 OZO 1024,3 10 0 0,0
26.09.2017 03:00:00 9,8 9,8 9,3 13,0 14,2 14,6 4 2 10 5 ZZW 1024,3 8 0 0,0
26.09.2017 02:00:00 11,0 11,0 10,2 13,3 14,3 14,6 5 3 9 5 OZO 1024,3 12 0 0,0
26.09.2017 01:00:00 10,4 10,4 8,9 13,6 14,4 14,6 6 3 9 5 ZO 1024,1 12 0 0,0
26.09.2017 00:00:00 12,3 11,7 11,2 13,9 14,5 14,6 6 3 9 5 O 1024,0 8 0 0,0
25.09.2017 23:00:00 12,5 12,0 11,4 14,2 14,6 14,6 6 3 9 5 OZO 1023,9 12 0 0,0
25.09.2017 22:00:00 13,2 12,6 12,5 14,4 14,6 14,6 6 3 10 5 ONO 1023,5 10 0 0,0
25.09.2017 21:00:00 13,1 12,8 12,5 14,7 14,7 14,6 6 3 11 6 ONO 1023,3 10 0 0,0
25.09.2017 20:00:00 13,5 12,8 12,8 15,1 14,7 14,6 8 4 11 6 ONO 1023,1 12 0 0,0
25.09.2017 19:00:00 13,9 13,2 13,0 15,5 14,6 14,6 6 3 10 6 ONO 1022,7 15 0 0,0
25.09.2017 18:00:00 14,6 12,8 14,3 15,6 14,5 14,6 7 4 13 7 ONO 1022,5 19 29 0,0
25.09.2017 17:00:00 15,5 13,2 17,2 15,4 14,4 14,6 7 4 12 7 NO 1021,9 18 29 1,3
25.09.2017 16:00:00 13,9 12,5 13,5 15,6 14,2 14,6 10 5 18 10 ZZO 1022,2 6 0 0,3
25.09.2017 15:00:00 15,1 11,0 16,5 15,5 14,0 14,6 9 5 16 9 O 1021,9 26 10 0,0
25.09.2017 14:00:00 15,0 11,4 16,7 15,0 13,8 14,6 6 4 13 7 O 1021,7 20 4 0,0
25.09.2017 13:00:00 14,4 11,2 17,0 14,3 13,7 14,6 5 3 12 6 O 1021,6 18 23 0,0
25.09.2017 12:00:00 13,4 11,6 15,4 13,8 13,6 14,6 5 3 13 7 O 1021,5 18 0 0,0
25.09.2017 11:00:00 12,6 12,0 13,1 13,5 13,5 14,6 10 5 13 7 NO 1021,8 13 0 0,0
25.09.2017 10:00:00 12,7 12,2 13,1 13,3 13,5 14,6 9 5 13 7 NO 1021,6 7 0 0,2
25.09.2017 09:00:00 12,4 12,2 12,6 13,1 13,6 14,6 9 5 12 7 NO 1021,5 4,5 0 0,1
25.09.2017 08:00:00 12,3 12,3 12,4 13,1 13,6 14,6 8 5 13 7 NNO 1021,2 2,5 0 0,2
25.09.2017 07:00:00 12,1 12,1 12,1 13,1 13,6 14,6 8 5 16 9 NO 1021,0 2,5 0 0,4
25.09.2017 06:00:00 12,1 12,1 12,1 13,2 13,6 14,6 11 6 16 8 NO 1021,0 3,0 0 0,4
25.09.2017 05:00:00 12,0 12,0 11,9 13,2 13,7 14,6 9 5 16 9 NO 1021,3 3,3 0 1,1
25.09.2017 04:00:00 12,1 12,1 12,0 13,3 13,7 14,6 9 5 15 8 NO 1021,5 4,5 0 1,5
25.09.2017 03:00:00 12,3 12,3 12,3 13,4 13,7 14,6 9 5 16 9 NNO 1021,8 5 0 2,4
25.09.2017 02:00:00 12,7 12,7 12,7 13,4 13,7 14,6 10 5 14 8 N 1022,2 2,5 0 2,0
25.09.2017 01:00:00 12,6 12,6 12,7 13,5 13,7 14,6 5 3 9 5 NNW 1022,5 0,1 0 0,0
25.09.2017 00:00:00 12,5 12,5 12,7 13,5 13,8 14,7 5 3 13 7 WNW 1022,8 0,1 0 0,0
24.09.2017 23:00:00 12,6 12,6 12,6 13,6 13,8 14,7 7 4 14 7 NNW 1023,1 0,1 0 0,0
24.09.2017 22:00:00 12,5 12,5 12,5 13,7 13,8 14,7 5 3 8 5 NW 1023,1 0,1 0 0,0
24.09.2017 21:00:00 12,5 12,5 12,6 13,8 13,8 14,7 5 3 10 5 NNW 1023,4 0,8 0 0,0
24.09.2017 20:00:00 12,8 12,8 12,1 14,0 13,7 14,7 4 2 6 4 NNW 1023,0 6 0 0,0
24.09.2017 19:00:00 13,1 12,9 13,1 14,1 13,7 14,7 4 2 9 5 WNW 1022,9 5 0 0,3
24.09.2017 18:00:00 13,5 13,0 13,6 14,1 13,6 14,7 4 2 9 5 NW 1022,4 10 0 0,0
24.09.2017 17:00:00 13,3 12,8 14,0 13,9 13,5 14,7 5 3 10 5 WNW 1022,1 4,5 0 0,0
24.09.2017 16:00:00 12,8 12,6 13,2 13,8 13,4 14,7 4 2 9 5 NW 1022,4 4,3 0 0,0
24.09.2017 15:00:00 12,7 12,2 13,5 13,6 13,3 14,7 6 3 10 6 NNW 1022,4 8 0 0,0
24.09.2017 14:00:00 12,8 12,1 13,9 13,4 13,2 14,7 6 3 12 7 NNW 1022,2 14 0 0,5
24.09.2017 13:00:00 12,2 11,9 13,1 13,1 13,1 14,7 6 3 11 6 NW 1022,3 4,3 0 1,1
24.09.2017 12:00:00 12,0 11,5 12,7 12,9 13,1 14,7 7 4 16 8 WNW 1022,0 7 0 0,0
24.09.2017 11:00:00 12,1 11,7 13,1 12,7 13,0 14,7 8 4 14 7 WNW 1021,8 7 0 0,0
24.09.2017 10:00:00 11,8 11,5 12,4 12,5 13,0 14,7 7 4 13 7 WNW 1021,6 12 0 0,0
24.09.2017 09:00:00 11,3 11,3 11,8 12,3 13,1 14,7 7 4 13 7 W 1020,9 3,5 0 1,0
24.09.2017 08:00:00 11,0 11,0 11,1 12,3 13,1 14,7 5 3 16 8 WNW 1021,0 2,8 0 1,4
24.09.2017 07:00:00 10,9 10,9 10,9 12,4 13,1 14,7 8 4 16 9 W 1020,5 3,5 0 0,2
24.09.2017 06:00:00 10,8 10,7 10,8 12,4 13,1 14,7 9 5 19 10 W 1020,3 3,8 0 1,9
24.09.2017 05:00:00 10,7 10,7 10,7 12,4 13,2 14,7 9 5 19 10 WNW 1020,5 4,0 0 0,1
24.09.2017 04:00:00 10,8 10,8 10,8 12,5 13,2 14,8 11 6 21 12 W 1020,5 3,0 0 0,1
24.09.2017 03:00:00 11,0 11,0 11,1 12,5 13,2 14,8 11 6 20 11 W 1020,3 2,8 0 0,1
24.09.2017 02:00:00 11,1 11,1 11,1 12,5 13,3 14,8 10 6 21 11 WNW 1020,4 3,7 0 0,2
24.09.2017 01:00:00 11,1 11,1 11,1 12,6 13,3 14,8 11 6 19 10 W 1020,6 2,8 0 0,4
24.09.2017 00:00:00 11,0 11,0 11,1 12,6 13,3 14,8 10 5 25 13 WNW 1020,6 2,7 0 0,3
23.09.2017 23:00:00 10,9 10,9 11,0 12,7 13,4 14,8 10 6 20 11 W 1020,9 3,0 0 0,7
23.09.2017 22:00:00 11,1 11,0 11,1 12,7 13,4 14,8 10 5 22 12 WNW 1021,2 3,5 0 0,3
23.09.2017 21:00:00 11,0 11,0 11,0 12,8 13,4 14,8 12 7 22 12 WNW 1021,4 3,5 0 0,9
23.09.2017 20:00:00 11,1 10,8 11,0 12,9 13,4 14,8 13 7 23 12 WNW 1021,6 6 0 1,0
23.09.2017 19:00:00 11,2 11,0 11,1 13,1 13,4 14,8 9 5 18 10 WNW 1021,7 6 0 2,7
23.09.2017 18:00:00 11,3 11,0 11,2 13,2 13,4 14,8 8 4 16 9 WNW 1021,7 7 0 2,7
23.09.2017 17:00:00 11,7 11,1 11,5 13,2 13,4 14,8 8 4 15 8 NW 1021,7 12 0 1,1
23.09.2017 16:00:00 12,0 10,7 11,7 13,3 13,3 14,8 7 4 18 10 N 1022,1 12 0 0,4
23.09.2017 15:00:00 12,8 9,9 12,7 13,3 13,2 14,8 9 5 18 10 NNW 1021,9 27 0 0,0
23.09.2017 14:00:00 12,9 9,8 13,6 13,1 13,1 14,8 10 6 18 10 NNW 1021,9 27 0 0,0
23.09.2017 13:00:00 12,5 9,9 13,1 12,9 13,0 14,8 9 5 17 9 NW 1022,2 27 0 0,0
23.09.2017 12:00:00 12,4 9,4 13,2 12,5 13,0 14,8 9 5 14 8 NNW 1022,4 25 0 0,0
23.09.2017 11:00:00 12,4 9,4 12,9 12,0 13,0 14,8 6 3 10 6 NW 1023,0 10 0 0,0
23.09.2017 10:00:00 10,6 9,5 11,3 11,5 13,0 14,8 5 3 9 5 W 1023,2 7 0 0,0
23.09.2017 09:00:00 9,1 8,8 9,3 11,4 13,2 14,8 6 3 7 4 WZW 1023,1 8 0 0,0
23.09.2017 08:00:00 7,0 7,0 6,8 11,4 13,3 14,8 4 2 5 3 ZW 1023,2 12 0 0,0
23.09.2017 07:00:00 6,6 6,6 6,1 11,5 13,5 14,8 4 2 8 4 Z 1022,9 14 0 0,0
23.09.2017 06:00:00 6,6 6,6 5,8 11,7 13,7 14,8 4 2 8 4 OZO 1023,1 12 0 0,0
23.09.2017 05:00:00 5,1 5,1 4,2 11,9 13,9 14,8 5 3 7 4 WZW 1023,2 14 0 0,0
23.09.2017 04:00:00 6,8 6,8 5,1 12,2 14,1 14,8 4 2 5 3 ZZO 1022,9 15 0 0,0
23.09.2017 03:00:00 6,0 6,0 4,3 12,6 14,3 14,8 4 2 7 4 ZZW 1023,4 17 0 0,0
23.09.2017 02:00:00 7,1 7,1 4,8 12,9 14,5 14,8 3 2 5 3 ZZW 1023,4 13 0 0,0
23.09.2017 01:00:00 7,4 7,4 5,3 13,3 14,7 14,8 4 2 8 4 ZZW 1023,2 11 0 0,0
23.09.2017 00:00:00 7,9 7,7 5,4 13,8 14,8 14,8 2 1 6 4 W 1023,3 15 0 0,0
22.09.2017 23:00:00 8,6 8,6 6,2 14,3 15,0 14,8 6 3 8 4 ZZO 1023,0 15 0 0,0
22.09.2017 22:00:00 10,4 8,7 8,0 14,8 15,1 14,8 7 4 10 5 ZW 1022,5 22 0 0,0
22.09.2017 21:00:00 10,4 9,2 8,1 15,4 15,1 14,8 7 4 9 5 WZW 1022,2 30 0 0,0
22.09.2017 20:00:00 11,3 8,5 8,6 16,2 15,1 14,9 4 2 5 3 WNW 1022,0 40 0 0,0
22.09.2017 19:00:00 13,6 9,0 11,2 16,7 15,0 14,9 3 1 12 7 NNO 1021,3 55 32 0,0
22.09.2017 18:00:00 15,8 8,9 15,9 16,9 14,7 14,9 8 4 18 10 N 1020,8 50 43 0,0
22.09.2017 17:00:00 16,4 9,0 20,2 16,6 14,5 14,9 11 6 20 11 NNO 1020,4 42 58 0,0
22.09.2017 16:00:00 16,2 8,8 21,0 15,9 14,2 14,9 11 6 24 13 NNW 1020,6 42 58 0,0
22.09.2017 15:00:00 15,6 8,6 20,5 15,3 14,1 14,9 10 5 19 10 NW 1020,5 30 43 0,0
22.09.2017 14:00:00 14,5 8,7 19,2 14,8 13,9 14,9 9 5 18 10 NNW 1020,8 30 6 0,0
22.09.2017 13:00:00 13,9 9,1 16,4 14,5 13,7 14,9 9 5 21 12 NW 1020,8 27 19 0,0
22.09.2017 12:00:00 14,2 10,2 17,9 13,9 13,7 14,9 12 6 21 11 WNW 1020,6 15 34 0,0
22.09.2017 11:00:00 12,7 10,1 14,6 13,4 13,6 14,9 10 6 16 9 W 1020,6 12 20 0,0
22.09.2017 10:00:00 11,7 10,4 12,8 13,1 13,6 14,9 4 2 12 6 NW 1020,9 8 0 0,0
22.09.2017 09:00:00 11,3 10,8 11,5 13,0 13,6 14,9 6 3 10 5 NNW 1020,8 3,5 0 0,0
22.09.2017 08:00:00 11,0 10,8 11,2 13,0 13,7 14,9 5 3 10 5 NW 1020,4 3,5 0 0,0
22.09.2017 07:00:00 10,9 10,6 10,9 13,0 13,7 14,9 5 3 11 6 NNW 1020,3 3,5 0 0,0
22.09.2017 06:00:00 11,0 10,7 10,6 13,1 13,8 14,9 4 2 16 9 NNW 1019,6 3,0 0 0,0
22.09.2017 05:00:00 11,1 10,8 11,1 13,1 13,8 14,9 5 3 9 5 NW 1019,9 3,8 0 0,1
22.09.2017 04:00:00 11,2 10,9 11,0 13,2 13,9 14,9 4 2 11 6 NW 1020,0 3,5 0 0,0
22.09.2017 03:00:00 11,2 10,8 10,9 13,3 13,9 14,9 6 3 11 6 WNW 1020,1 5 0 0,0
22.09.2017 02:00:00 11,2 10,8 10,8 13,4 14,0 14,9 6 4 10 5 WNW 1020,2 6 0 0,0
22.09.2017 01:00:00 11,2 10,9 10,7 13,5 14,1 14,9 5 3 9 5 W 1020,2 4,0 0 0,5
22.09.2017 00:00:00 11,5 10,9 11,2 13,7 14,1 14,9 7 4 11 6 WNW 1020,2 5 0 0,3
21.09.2017 23:00:00 11,6 11,0 11,2 13,8 14,2 14,9 5 3 28 15 WNW 1020,3 10 0 0,4
21.09.2017 22:00:00 12,4 10,5 11,5 14,0 14,2 14,9 11 6 21 11 NW 1020,3 8 0 0,0
21.09.2017 21:00:00 13,0 9,9 12,4 14,3 14,2 15,0 8 4 17 9 NW 1020,3 17 0 0,0
21.09.2017 20:00:00 13,2 9,8 12,8 14,5 14,2 15,0 8 4 16 8 NW 1019,9 25 0 0,0
21.09.2017 19:00:00 13,3 9,7 12,4 14,8 14,1 15,0 8 5 21 11 NW 1019,6 35 0 0,0
21.09.2017 18:00:00 14,3 9,9 14,3 15,0 13,9 15,0 13 7 27 15 NW 1019,5 25 0 0,0
21.09.2017 17:00:00 14,5 9,9 14,8 15,1 13,7 15,0 12 6 26 14 NW 1019,7 26 0 0,0
21.09.2017 16:00:00 15,2 9,5 17,3 14,7 13,5 15,0 14 8 31 17 WNW 1019,8 26 35 0,0
21.09.2017 15:00:00 14,8 10,0 17,6 14,2 13,3 15,0 14 7 26 14 NW 1020,0 26 11 0,0
21.09.2017 14:00:00 13,9 9,4 16,9 13,7 13,2 15,0 13 7 22 12 WNW 1020,4 23 1 0,0
21.09.2017 13:00:00 13,5 9,5 16,1 13,2 13,0 15,0 12 6 24 13 NW 1020,8 17 0 0,0
21.09.2017 12:00:00 12,8 9,7 14,9 12,7 12,9 14,9 11 6 20 11 NW 1021,1 16 0 0,0
21.09.2017 11:00:00 12,0 9,9 13,6 12,2 12,9 15,0 10 5 22 12 WNW 1021,0 11 0 0,0
21.09.2017 10:00:00 11,5 9,1 13,1 11,8 13,0 15,0 7 4 18 10 NW 1021,2 9 34 0,0
21.09.2017 09:00:00 10,3 8,7 11,8 11,4 13,0 15,0 9 5 14 8 WNW 1021,1 7 52 0,0
21.09.2017 08:00:00 8,7 8,1 8,8 11,3 13,2 15,0 5 3 11 6 W 1021,4 7 0 0,0
21.09.2017 07:00:00 7,3 7,1 6,9 11,5 13,3 15,0 7 4 12 7 W 1021,5 8 0 0,0
21.09.2017 06:00:00 7,7 7,0 6,1 11,7 13,5 15,0 8 4 14 8 W 1021,2 12 0 0,0
21.09.2017 05:00:00 7,4 6,5 5,7 12,0 13,6 15,0 7 4 15 8 W 1021,3 20 0 0,0
21.09.2017 04:00:00 8,1 6,7 7,0 12,3 13,7 15,0 10 6 16 9 W 1021,4 25 0 0,0
21.09.2017 03:00:00 8,3 6,9 7,1 12,6 13,9 15,0 9 5 16 8 W 1021,5 30 0 0,0
21.09.2017 02:00:00 9,3 7,7 8,8 12,8 14,0 15,0 8 5 16 9 W 1021,6 20 0 0,0
21.09.2017 01:00:00 9,8 8,0 9,3 13,0 14,1 15,0 10 6 16 9 W 1021,2 25 0 0,0
21.09.2017 00:00:00 10,3 8,1 9,6 13,1 14,2 15,0 9 5 16 9 WNW 1020,9 30 0 0,0
20.09.2017 23:00:00 9,5 8,4 8,7 13,4 14,4 15,0 5 3 9 5 W 1020,7 25 0 0,0
20.09.2017 22:00:00 8,6 7,6 6,8 13,9 14,5 15,0 8 4 9 5 WZW 1020,8 35 0 0,0
20.09.2017 21:00:00 9,3 8,3 7,0 14,4 14,6 15,0 4 2 8 5 W 1020,7 45 0 0,0
20.09.2017 20:00:00 10,6 8,1 9,1 14,9 14,5 15,0 5 3 13 7 W 1020,2 45 0 0,0
20.09.2017 19:00:00 11,5 9,2 10,8 15,3 14,4 15,0 7 4 26 14 WNW 1019,7 35 1 0,3
20.09.2017 18:00:00 13,6 8,5 13,5 15,6 14,2 15,0 5 3 10 5 NW 1019,0 35 12 0,0
20.09.2017 17:00:00 14,2 8,0 15,4 15,7 14,0 15,0 8 4 19 10 NW 1018,6 30 0 0,0
20.09.2017 16:00:00 14,5 8,7 16,3 15,6 13,7 15,0 9 5 19 11 NNW 1018,6 27 9 0,0
20.09.2017 15:00:00 14,0 8,7 16,0 15,0 13,5 15,0 14 7 25 14 NW 1018,6 30 47 0,0
20.09.2017 14:00:00 15,2 8,1 18,5 14,2 13,2 15,0 11 6 22 12 W 1018,5 20 44 0,0

tt = temperatuur
td = dauwpunt
tt 5cm = temperatuur 5cm
tt -5cm = temperatuur -5cm
tt -20cm = temperatuur -20cm
tt -100cm = temperatuur -100cm
ff = windsnelheid
fx = windstoten
dd = windrichting
ppp = luchtdruk
vv = zicht
sd = Zonneschijnduur
rr = neerslag

Weerstations in de omgeving